Temp
59 58 59 59 60 61 61 59 56 50 50 54 55 58 58 57 57 57 56 56 57 59 60 61 61 61 61 62 62 62 63 64 63 64 64 63 63 64
60 58 58 58 59 58 59 59 58 54 51 54 55 56 58 60 57 58 58 54 56 58 59 58 58 58 59 60 60 61 61 62 62 63 64 64 63 63
60 59 59 58 57 57 57 57 57 55 53 54 56 56 56 56 57 55 55 56 55 56 58 58 57 57 57 58 58 59 59 60 61 62 63 64 63 63
60 60 60 60 57 57 57 56 56 56 54 53 54 55 55 55 56 55 57 58 55 57 56 56 56 56 56 56 56 57 57 57 58 59 60 62 62 62
60 59 59 60 57 56 56 56 56 57 55 54 54 54 54 54 54 54 55 54 56 54 56 56 56 56 56 56 55 55 54 55 55 56 56 57 59 60
61 61 59 59 58 57 57 57 56 55 54 53 53 53 52 53 53 53 54 54 53 56 55 55 55 54 54 55 54 52 52 53 54 55 55 54 55 56
59 59 59 56 54 56 58 56 56 54 53 52 51 50 50 51 51 52 52 53 51 52 52 52 51 51 51 52 51 51 51 52 53 54 54 54 54 54
55 55 56 52 52 52 53 53 56 54 53 51 50 50 51 51 54 53 52 51 47 51 50 50 51 51 51 51 53 52 52 52 52 53 53 53 53 53
56 54 55 56 53 56 52 51 51 52 54 54 52 51 52 55 55 52 51 48 48 50 53 50 49 49 51 52 52 52 52 51 51 51 51 52 52 52
56 54 53 54 55 56 56 53 53 53 53 53 54 54 54 55 54 54 51 50 50 51 52 49 48 48 49 49 51 51 51 51 51 51 51 51 50 50
54 56 56 54 52 51 54 53 52 53 52 51 51 51 51 51 52 51 49 49 49 50 47 48 47 45 45 46 47 49 50 50 50 50 50 50 50 49
53 54 48 49 48 50 54 54 53 53 53 52 52 49 48 50 48 51 52 50 47 41 49 48 46 46 43 45 42 44 44 48 48 49 50 50 50 49
47 49 48 45 46 47 49 53 53 54 53 53 52 52 52 50 50 48 50 52 48 47 51 49 40 42 39 44 45 42 43 44 45 46 49 49 49 49
43 44 44 44 45 46 48 48 48 48 51 51 50 49 49 48 48 48 49 50 53 52 52 50 39 44 39 37 41 43 43 44 42 42 43 48 50 49
41 41 42 43 44 46 46 47 47 49 49 47 47 48 49 50 48 48 49 49 49 50 50 50 45 46 42 40 41 39 38 41 42 42 43 43 43 44
39 40 41 42 44 45 45 46 46 47 48 48 48 49 47 43 43 43 40 38 38 41 42 46 47 44 38 43 44 44 40 38 37 40 40 40 42 44
37 37 36 39 41 42 43 44 46 47 46 47 46 44 43 41 39 38 38 36 38 38 42 36 39 40 41 40 37 42 44 38 40 38 36 36 40 43
35 33 33 34 36 39 38 38 39 40 40 39 38 37 35 36 37 35 35 36 37 38 38 37 34 34 34 37 42 41 41 42 43 38 35 36 40 42
33 32 32 34 34 34 34 34 33 36 36 34 34 34 34 34 35 35 35 35 36 37 38 36 34 34 36 37 38 42 40 42 37 34 37 37 40 43
28 28 28 29 29 29 30 31 32 32 33 33 33 34 34 33 34 34 35 35 36 35 36 35 35 36 36 37 35 37 39 40 38 39 38 37 38 39
25 25 26 26 26 27 28 29 29 29 31 30 31 32 33 33 33 34 35 38 38 35 35 36 38 41 36 35 34 36 41 37 40 38 34 35 34 33
24 24 24 24 25 25 26 26 25 26 27 28 29 30 31 32 32 32 33 33 34 35 36 37 36 35 34 35 36 37 37 36 36 39 38 39 34 33
22 23 23 23 23 23 24 22 21 22 23 25 26 28 29 29 30 31 31 32 33 34 35 35 36 34 36 35 36 36 36 35 33 33 35 39 38 38
MSLP
1024.79 1025.24 1025.58 1025.92 1026.15 1026.38 1026.60 1026.98 1027.67 1028.58 1028.69 1028.15 1027.95 1027.49 1027.62 1027.86 1027.94 1027.94 1028.12 1028.22 1028.36 1028.51 1028.58 1028.63 1028.66 1028.70 1028.75 1028.76 1028.82 1028.91 1028.89 1028.87 1028.96 1029.01 1029.10 1029.22 1029.33 1029.33
1024.38 1024.82 1025.29 1025.69 1025.95 1026.20 1026.53 1026.79 1027.15 1027.90 1028.41 1028.08 1027.83 1027.54 1027.52 1027.67 1027.74 1027.86 1027.85 1027.96 1028.09 1028.16 1028.24 1028.30 1028.34 1028.41 1028.46 1028.48 1028.54 1028.65 1028.74 1028.78 1028.79 1028.83 1028.90 1028.99 1029.13 1029.19
1024.05 1024.44 1024.87 1025.31 1025.76 1026.10 1026.39 1026.61 1026.97 1027.40 1027.96 1027.74 1027.57 1027.33 1027.53 1027.67 1027.68 1027.80 1027.75 1027.83 1027.87 1027.86 1027.83 1027.86 1027.96 1028.05 1028.11 1028.12 1028.23 1028.32 1028.38 1028.43 1028.52 1028.58 1028.62 1028.71 1028.81 1028.92
1023.68 1024.17 1024.50 1024.92 1025.42 1025.76 1026.08 1026.40 1026.59 1026.86 1027.35 1027.69 1027.55 1027.41 1027.43 1027.45 1027.46 1027.62 1027.53 1027.50 1027.63 1027.62 1027.56 1027.53 1027.57 1027.62 1027.66 1027.77 1027.83 1027.87 1027.99 1028.08 1028.11 1028.19 1028.27 1028.39 1028.49 1028.60
1023.19 1023.68 1023.97 1024.25 1024.86 1025.34 1025.71 1026.05 1026.25 1026.50 1026.84 1027.24 1027.37 1027.27 1027.32 1027.37 1027.46 1027.40 1027.31 1027.43 1027.39 1027.39 1027.27 1027.17 1027.20 1027.29 1027.29 1027.30 1027.34 1027.42 1027.50 1027.60 1027.70 1027.76 1027.87 1027.98 1028.07 1028.14
1022.71 1023.12 1023.48 1023.74 1024.15 1024.62 1025.10 1025.45 1025.79 1026.20 1026.56 1026.93 1027.17 1027.29 1027.39 1027.32 1027.42 1027.54 1027.52 1027.36 1027.36 1027.11 1026.96 1026.88 1026.86 1026.95 1026.96 1026.94 1026.92 1026.95 1026.95 1027.00 1027.12 1027.21 1027.30 1027.45 1027.54 1027.64
1022.63 1022.91 1023.14 1023.32 1023.68 1023.87 1024.35 1024.78 1025.26 1025.79 1026.22 1026.60 1026.94 1027.12 1027.25 1027.29 1027.26 1027.09 1027.42 1027.32 1027.27 1027.13 1026.99 1026.85 1026.81 1026.89 1026.72 1026.58 1026.50 1026.43 1026.39 1026.42 1026.45 1026.49 1026.55 1026.65 1026.80 1026.92
1022.34 1022.79 1023.10 1023.27 1023.61 1023.80 1023.95 1024.10 1024.35 1025.06 1025.56 1026.01 1026.37 1026.69 1026.64 1026.67 1026.62 1026.79 1027.11 1027.30 1027.42 1026.94 1026.96 1026.83 1026.72 1026.66 1026.35 1026.19 1025.86 1025.74 1025.69 1025.71 1025.71 1025.73 1025.80 1025.97 1026.09 1026.29
1022.14 1022.64 1022.90 1023.01 1023.10 1023.25 1023.74 1023.97 1024.20 1024.35 1024.34 1024.91 1025.63 1025.94 1026.11 1025.96 1026.02 1026.35 1026.61 1026.81 1026.89 1026.66 1026.65 1026.62 1026.61 1026.28 1025.75 1025.52 1025.33 1025.17 1025.07 1025.01 1025.02 1025.07 1025.14 1025.25 1025.42 1025.62
1021.99 1022.31 1022.65 1022.91 1022.94 1023.07 1023.41 1023.80 1023.99 1024.14 1024.19 1024.43 1024.72 1024.96 1025.22 1025.36 1025.71 1025.80 1026.04 1026.28 1026.29 1026.13 1026.08 1026.45 1026.03 1025.75 1025.10 1024.91 1024.69 1024.43 1024.43 1024.41 1024.40 1024.52 1024.62 1024.64 1024.73 1024.94
1021.95 1022.03 1022.23 1022.70 1022.58 1022.76 1023.24 1023.51 1023.60 1023.61 1023.62 1023.98 1024.20 1024.39 1024.73 1024.98 1025.28 1025.69 1025.95 1026.25 1026.20 1026.06 1026.13 1026.13 1025.73 1025.64 1025.30 1024.67 1024.18 1024.11 1024.18 1024.28 1024.24 1024.21 1024.25 1024.25 1024.29 1024.45
1022.04 1022.10 1022.65 1022.90 1022.78 1022.65 1022.99 1023.06 1023.29 1023.28 1023.42 1023.69 1024.03 1024.29 1024.42 1024.55 1024.86 1025.06 1025.38 1025.63 1025.88 1025.97 1025.31 1025.80 1025.64 1025.67 1025.57 1024.58 1024.27 1024.08 1024.04 1023.92 1024.00 1023.99 1023.94 1023.94 1024.01 1024.15
1022.51 1022.62 1023.18 1023.35 1023.26 1023.02 1022.83 1022.96 1023.02 1022.91 1023.17 1023.48 1023.74 1023.92 1023.93 1024.14 1024.27 1024.63 1024.87 1024.95 1024.95 1025.01 1024.79 1025.07 1025.41 1025.47 1025.50 1024.92 1024.34 1023.97 1023.91 1023.57 1023.69 1023.61 1023.52 1023.56 1023.58 1023.65
1023.28 1023.46 1023.67 1023.61 1023.26 1023.17 1023.01 1023.08 1023.15 1023.29 1023.35 1023.52 1023.69 1023.81 1023.83 1023.95 1023.93 1024.04 1023.99 1024.07 1024.02 1024.12 1024.18 1024.37 1024.69 1024.84 1024.88 1024.97 1024.72 1023.75 1023.54 1023.38 1023.51 1023.40 1023.29 1023.26 1023.11 1023.04
1024.15 1024.13 1023.89 1023.61 1023.39 1023.16 1023.02 1023.12 1023.25 1023.34 1023.45 1023.58 1023.60 1023.65 1023.47 1023.32 1023.52 1023.64 1023.50 1023.52 1023.56 1023.59 1023.59 1023.74 1023.90 1023.93 1024.16 1024.13 1024.06 1023.86 1023.75 1023.23 1023.06 1023.03 1022.94 1022.88 1022.89 1022.80
1024.49 1024.21 1024.16 1023.69 1023.50 1023.33 1023.09 1023.03 1023.25 1023.32 1023.33 1023.26 1023.21 1023.17 1023.21 1023.26 1023.36 1023.42 1023.55 1023.48 1023.71 1023.55 1023.20 1023.14 1023.19 1023.36 1023.55 1023.42 1023.39 1023.29 1023.24 1023.51 1022.67 1022.64 1022.69 1022.69 1022.53 1022.36
1024.73 1024.75 1024.54 1024.02 1023.68 1023.53 1023.36 1023.29 1023.21 1023.31 1023.28 1023.17 1023.04 1023.10 1023.18 1023.14 1023.12 1023.06 1023.16 1023.25 1023.51 1023.45 1023.25 1023.10 1022.88 1022.94 1022.87 1023.00 1022.96 1022.66 1022.45 1022.49 1022.08 1022.29 1022.62 1022.25 1021.76 1021.48
1024.80 1025.15 1024.93 1024.58 1024.14 1024.03 1024.03 1023.95 1023.89 1023.91 1024.06 1024.10 1023.92 1023.78 1023.78 1023.60 1023.41 1023.15 1023.10 1023.20 1023.14 1023.02 1022.98 1022.92 1023.02 1023.20 1022.79 1022.27 1021.95 1021.65 1021.62 1021.38 1020.98 1021.08 1021.39 1021.64 1021.07 1020.32
1024.85 1025.33 1025.25 1024.83 1024.85 1024.91 1024.80 1024.71 1024.83 1024.61 1024.44 1024.34 1024.23 1024.07 1023.78 1023.55 1023.47 1023.36 1023.25 1023.04 1022.75 1022.58 1022.41 1022.44 1022.76 1022.88 1022.57 1021.75 1020.65 1020.57 1020.54 1020.17 1020.47 1020.72 1020.61 1020.58 1019.98 1019.23
1025.91 1026.12 1026.00 1025.86 1025.72 1025.61 1025.43 1025.43 1025.34 1025.04 1024.84 1024.65 1024.40 1024.23 1023.96 1023.62 1023.40 1023.25 1023.06 1022.78 1022.48 1022.17 1021.88 1021.96 1022.10 1021.95 1021.79 1021.16 1020.69 1019.91 1019.77 1019.35 1019.56 1019.63 1019.59 1019.53 1019.28 1019.16
1026.90 1026.86 1026.77 1026.56 1026.37 1026.17 1026.01 1026.06 1025.87 1025.51 1025.21 1025.05 1024.74 1024.51 1024.13 1023.76 1023.36 1023.14 1022.78 1022.52 1022.22 1021.86 1021.45 1021.10 1020.94 1020.75 1020.73 1020.70 1020.45 1019.54 1018.81 1018.73 1018.73 1018.76 1018.59 1018.99 1018.91 1018.79
1027.33 1027.26 1027.32 1027.21 1027.02 1026.86 1026.67 1026.50 1026.27 1026.02 1025.77 1025.49 1025.08 1024.67 1024.25 1023.79 1023.33 1023.06 1022.76 1022.33 1021.91 1021.51 1021.01 1020.51 1020.38 1020.37 1020.11 1019.98 1019.34 1018.88 1018.57 1018.41 1018.17 1018.08 1018.12 1017.97 1018.12 1017.72
1028.01 1027.97 1027.89 1027.67 1027.57 1027.32 1027.08 1026.93 1026.77 1026.58 1026.23 1025.76 1025.30 1024.75 1024.19 1023.79 1023.46 1023.16 1022.82 1022.33 1021.81 1021.25 1020.80 1020.17 1019.84 1019.77 1019.27 1018.97 1018.58 1018.19 1018.04 1017.99 1017.86 1017.70 1017.25 1017.16 1017.12 1016.94
Wind_Speed
6 6 4 3 2 2 3 3 5 3 3 3 3 3 3 3 4 4 4 6 7 9 9 10 9 8 8 8 7 6 6 6 5 5 6 7 7 8
5 7 5 3 3 2 3 3 3 4 3 4 4 3 4 3 5 4 4 6 7 9 9 9 9 9 10 10 9 8 8 8 8 8 9 9 9 8
5 7 7 6 4 4 3 2 4 4 4 3 3 3 4 4 3 3 3 3 4 8 8 9 9 9 10 11 10 10 10 9 9 10 11 11 11 10
8 8 8 6 6 5 4 5 4 4 4 6 2 2 4 4 3 3 4 4 4 6 7 8 9 9 10 10 11 11 11 11 11 10 10 11 11 11
8 8 8 8 6 4 5 5 4 3 4 3 4 2 3 2 3 2 3 3 3 7 8 8 8 9 10 10 11 11 11 12 12 11 11 11 11 12
4 5 7 8 8 8 7 7 5 4 3 3 3 3 3 3 1 3 4 2 2 2 5 7 6 6 9 11 10 11 11 12 13 12 12 12 12 12
5 3 3 6 9 8 5 6 6 4 3 4 2 2 2 2 4 2 3 1 2 3 2 3 3 2 4 7 9 11 12 13 14 14 14 14 14 14
6 4 2 4 7 8 10 10 9 7 5 4 3 4 5 4 3 4 3 2 2 1 2 3 2 3 4 4 10 12 12 13 15 15 15 14 14 13
6 5 3 2 3 5 7 7 7 8 7 7 5 6 3 5 3 3 4 3 4 4 2 3 1 4 5 5 12 12 13 13 13 14 13 14 13 13
5 6 5 5 5 4 4 5 6 6 6 4 6 6 5 2 4 3 4 4 2 3 4 4 3 5 3 4 11 11 11 12 11 12 12 12 12 13
3 4 4 5 7 6 5 6 6 5 5 9 9 8 7 6 4 2 2 2 4 3 3 3 4 3 3 4 4 8 9 9 9 10 10 11 10 10
3 3 9 6 8 3 5 5 5 5 5 3 3 4 6 6 8 6 4 5 4 2 4 5 2 2 4 2 2 3 3 8 9 9 9 10 9 5
3 4 5 10 9 8 3 2 4 2 4 4 3 3 3 4 4 4 5 5 4 6 4 3 2 1 2 4 3 2 3 3 3 4 9 9 9 8
6 5 5 12 9 8 3 4 5 4 2 2 3 3 3 4 4 5 6 7 7 8 4 6 3 4 3 1 3 2 3 3 3 3 4 6 9 11
6 8 11 11 10 5 3 5 5 2 3 3 4 4 4 5 4 3 4 5 5 5 6 6 5 6 4 4 4 3 2 3 4 4 3 5 4 4
10 8 10 9 9 6 3 1 1 3 4 5 5 4 3 2 3 3 3 2 1 4 6 7 8 6 3 7 6 9 4 3 2 4 4 4 4 6
9 6 5 4 4 3 3 2 1 2 3 4 3 3 4 3 3 2 3 2 4 3 7 2 4 4 5 4 3 7 8 5 6 4 3 3 6 7
4 5 5 4 4 2 3 4 4 4 4 4 3 2 1 2 3 2 1 3 4 4 4 3 0 2 3 5 15 10 7 8 8 6 4 4 8 7
2 3 3 2 4 3 3 3 3 3 3 2 2 3 2 2 3 2 3 3 3 4 5 3 3 3 5 8 4 22 9 8 3 2 6 8 8 8
5 5 4 4 4 4 4 3 3 3 3 3 3 3 3 2 3 3 3 4 4 3 3 3 4 7 6 7 3 4 19 8 6 8 6 4 4 6
5 5 5 5 5 5 4 4 5 4 5 4 4 4 4 3 4 4 5 8 9 4 6 6 7 12 5 1 4 5 6 18 11 8 2 4 3 2
4 4 4 4 5 5 5 5 5 5 5 5 5 4 4 4 4 5 5 6 6 6 7 6 4 3 4 6 10 9 6 3 8 20 10 9 5 5
5 5 5 5 4 5 4 4 5 5 5 5 5 6 5 5 5 5 6 7 7 8 8 8 5 3 7 7 10 9 9 6 2 2 5 17 18 16
Wind_Direction
185 174 170 198 197 192 160 148 147 172 251 273 228 218 193 164 192 170 190 223 232 240 245 250 257 258 255 257 267 273 273 226 210 220 208 204 224 251
174 168 183 186 208 218 206 166 151 153 197 210 232 218 188 187 195 193 209 220 233 236 242 247 251 251 251 252 252 256 256 250 237 225 224 218 225 238
175 178 193 176 202 211 199 174 171 150 185 286 233 214 195 188 209 229 234 241 246 236 237 242 243 250 253 249 248 248 247 243 242 240 232 229 230 234
186 184 195 178 197 201 195 208 200 185 160 216 246 219 206 215 215 214 238 227 234 249 241 244 240 242 252 256 254 244 243 242 240 240 238 234 234 233
183 184 192 177 188 188 199 206 202 195 186 167 231 221 228 214 238 241 226 251 251 253 260 252 247 248 253 254 252 253 243 239 237 236 237 239 237 233
162 179 189 186 186 191 195 200 198 196 177 180 207 226 207 230 203 221 265 212 274 267 256 248 245 248 257 261 260 254 245 237 236 231 230 231 234 236
163 179 220 207 201 195 184 196 181 193 177 186 190 177 213 200 205 205 221 282 281 240 278 282 273 273 273 270 260 251 248 241 239 232 229 224 225 228
169 185 225 255 228 204 200 197 185 180 190 178 188 194 222 209 200 200 188 193 294 242 187 284 177 262 263 261 254 247 246 243 238 238 233 227 225 226
162 179 202 254 246 223 214 209 208 197 177 172 184 204 210 217 186 192 199 175 210 237 191 250 232 265 249 258 262 255 248 244 240 238 234 232 226 226
181 183 192 245 249 220 209 206 218 214 213 190 187 202 202 219 202 204 197 210 263 239 180 233 194 245 273 259 260 257 261 251 242 237 234 232 228 228
205 223 203 240 248 239 204 217 231 236 217 205 205 221 217 242 218 138 229 211 261 235 205 220 250 260 263 274 276 261 263 271 267 261 255 246 237 232
209 214 40 22 358 243 203 204 206 227 191 185 218 245 229 245 204 196 208 246 256 307 231 190 225 192 306 251 291 286 252 256 263 264 262 258 250 245
37 53 60 31 32 36 275 227 221 254 219 207 211 231 243 244 242 197 209 220 231 233 212 178 200 184 206 287 278 254 223 246 243 261 251 251 245 229
42 35 15 356 5 5 12 12 334 325 285 242 221 228 246 269 263 220 214 213 222 232 212 193 208 188 186 238 256 298 255 243 224 240 228 248 246 244
19 2 354 345 332 321 349 341 336 273 239 231 228 228 217 236 240 260 255 245 236 236 241 206 207 229 190 221 242 246 308 264 218 221 222 224 229 232
357 349 333 324 297 287 310 344 288 261 258 249 238 233 223 220 225 200 202 211 184 273 247 232 232 198 225 238 237 257 216 251 222 224 223 245 245 237
337 332 326 330 330 325 312 286 13 341 288 271 256 244 237 227 234 196 213 202 203 228 270 286 241 234 235 216 236 245 255 234 235 226 179 249 243 233
318 297 296 305 302 1 25 14 18 29 14 348 338 317 300 304 285 306 207 205 227 231 242 257 157 354 331 258 215 247 239 245 248 210 188 207 259 236
245 267 284 355 39 26 23 17 344 349 351 337 323 312 299 284 318 288 263 233 245 242 243 204 178 189 249 261 268 211 231 238 220 212 213 212 238 255
25 14 16 16 19 13 5 353 338 349 346 331 324 304 302 288 311 294 275 263 257 245 243 226 212 223 231 250 237 267 216 226 207 238 237 227 258 294
27 10 8 8 4 353 354 351 350 337 332 333 322 314 310 305 302 291 288 290 282 261 258 250 246 235 233 356 272 263 261 219 226 221 206 211 219 234
14 5 5 357 351 351 348 357 354 345 330 321 313 306 307 316 312 306 299 294 287 275 270 271 259 246 202 220 254 260 262 265 232 242 239 229 181 234
352 347 347 342 344 338 355 3 346 328 322 323 325 325 312 311 313 302 295 294 289 286 282 279 266 222 239 231 244 258 254 246 228 233 237 235 248 263